This is the latest recevied weather packets stored in our database for station/object N4AN. If no packets are shown the sender has not sent any weather packets the latest 10 day(s).
| Time | Temp. | Humidity | Pressure | Rain* | Wind** | Luminosity | Snow |
|---|---|---|---|---|---|---|---|
| 1787402225 | 30° C | 74% | 1011.9 hPa | 0 mm | - | - | - |
| 1787402001 | 30° C | 75% | 1011.8 hPa | 0 mm | - | - | - |
| 1787401921 | 30° C | 75% | 1011.8 hPa | 0 mm | - | - | - |
| 1787401622 | 30° C | 75% | 1011.8 hPa | 0 mm | - | - | - |
| 1787401395 | 29.44° C | 76% | 1011.7 hPa | 0 mm | - | - | - |
| 1787401320 | 29.44° C | 76% | 1011.7 hPa | 0 mm | - | - | - |
| 1787401020 | 30° C | 74% | 1011.6 hPa | 0 mm | - | - | - |
| 1787400719 | 30° C | 74% | 1011.7 hPa | 0 mm | - | - | - |
| 1787400419 | 30° C | 75% | 1011.6 hPa | 0 mm | - | - | - |
| 1787400119 | 30° C | 75% | 1011.6 hPa | 0 mm | - | - | - |
| 1787399819 | 30.56° C | 75% | 1011.5 hPa | 0 mm | - | - | - |
| 1787399518 | 30° C | 75% | 1011.5 hPa | 0 mm | - | - | - |
| 1787399218 | 30° C | 75% | 1011.5 hPa | 0 mm | - | - | - |
| 1787398918 | 30° C | 75% | 1011.4 hPa | 0 mm | - | - | - |
| 1787398617 | 30° C | 74% | 1011.4 hPa | 0 mm | - | - | - |
| 1787398317 | 30° C | 74% | 1011.3 hPa | 0 mm | - | - | - |
| 1787398018 | 30° C | 76% | 1011.4 hPa | 0 mm | - | - | - |
| 1787397717 | 29.44° C | 75% | 1011.3 hPa | 0 mm | - | - | - |
| 1787397416 | 30° C | 75% | 1011.3 hPa | 0 mm | - | - | - |
| 1787397235 | 30° C | 75% | 1011.2 hPa | 0 mm | - | - | - |
| 1787397116 | 30° C | 75% | 1011.2 hPa | 0 mm | - | - | - |
| 1787396816 | 30.56° C | 74% | 1011.3 hPa | 0 mm | - | - | - |
| 1787396515 | 30.56° C | 75% | 1011.1 hPa | 0 mm | - | - | - |
| 1787396215 | 29.44° C | 78% | 1011.1 hPa | 0 mm | - | - | - |
| 1787395915 | 28.89° C | 78% | 1011.2 hPa | 0 mm | - | - | - |
* Rain latest hour (hover to see other rain measurements)
** Current wind speed in m/s (hover to see current wind gust speed)